ISS (ZARYA) 1 25544U 98067A 26238.49891027 .00008646 00000+0 16123-3 0 9990 2 25544 51.6328 312.0820 0007754 85.9348 274.2526 15.49640156582658 POISK 1 36086U 09060A 26238.49891027 .00008646 00000+0 16123-3 0 9998 2 36086 51.6328 312.0820 0007754 85.9348 274.2526 15.49640156582730 CSS (TIANHE) 1 48274U 21035A 26238.30990125 .00014464 00000+0 18254-3 0 9997 2 48274 41.4676 256.3321 0001670 252.2409 107.8247 15.59279364304114 ISS (NAUKA) 1 49044U 21066A 26238.49891027 .00008646 00000+0 16123-3 0 9996 2 49044 51.6328 312.0820 0007754 85.9348 274.2526 15.49640156582772 FREGAT DEB 1 49271U 11037PF 26238.49763976 .00016534 00000+0 24854-1 0 9999 2 49271 51.6396 150.2723 0927561 77.7342 292.5698 12.43797831233795 CSS (WENTIAN) 1 53239U 22085A 26238.30990125 .00014464 00000+0 18254-3 0 9990 2 53239 41.4676 256.3321 0001670 252.2409 107.8247 15.59279364288235 CSS (MENGTIAN) 1 54216U 22143A 26238.30990125 .00014464 00000+0 18254-3 0 9991 2 54216 41.4676 256.3321 0001670 252.2409 107.8247 15.59279364304443 HRC MONOBLOCK CAMERA 1 66052U 98067XR 26238.47075742 .00133199 00000+0 48634-3 0 9999 2 66052 51.6165 274.9090 0006551 28.6914 331.4449 15.87474373 49115 SZ-21 MODULE 1 66515U 25246C 26237.26102558 .00062066 00000+0 28332-3 0 9991 2 66515 41.4696 235.1504 0008710 160.7980 199.3196 15.82780522 44660 DUPLEX 1 66906U 98067XS 26238.35000597 .00036497 00000+0 32822-3 0 9995 2 66906 51.6250 293.7908 0004046 59.5318 300.6077 15.67855356 41640 KNACKSAT-2 1 67683U 98067XZ 26238.54515479 .00050038 00000+0 47013-3 0 9994 2 67683 51.6263 298.8705 0007447 87.9451 272.2397 15.66604784 31283 GXIBA-1 1 67685U 98067YB 26238.44376481 .00061788 00000+0 50854-3 0 9994 2 67685 51.6249 297.4189 0007997 80.8892 279.3010 15.69754668 31292 UITMSAT-2 1 67686U 98067YC 26238.41346900 .00118510 00000+0 68371-3 0 9994 2 67686 51.6238 293.4321 0008224 42.2020 317.9613 15.77751223 31341 LEOPARD 1 67687U 98067YD 26238.43092018 .00075088 00000+0 61688-3 0 9991 2 67687 51.6271 298.1174 0007825 49.8189 310.3493 15.69721143 31209 HMU-SAT2 1 67688U 98067YE 26238.39069431 .00086020 00000+0 59729-3 0 9991 2 67688 51.6248 295.5674 0007449 47.3998 312.7628 15.73659888 31233 CREW DRAGON 12 1 67796U 26031A 26238.49891027 .00008646 00000+0 16123-3 0 9997 2 67796 51.6328 312.0820 0007754 85.9348 274.2526 15.49640156583249 PROGRESS-MS 33 1 68319U 26058A 26238.49891027 .00008646 00000+0 16123-3 0 9998 2 68319 51.6328 312.0820 0007754 85.9348 274.2526 15.49640156582891 CYGNUS NG-24 1 68689U 26079A 26238.49891027 .00008646 00000+0 16123-3 0 9991 2 68689 51.6328 312.0820 0007754 85.9348 274.2526 15.49640156583364 PROGRESS-MS 34 1 68837U 26093A 26238.49891027 .00008646 00000+0 16123-3 0 9992 2 68837 51.6328 312.0820 0007754 85.9348 274.2526 15.49640156583404 TIANZHOU-10 1 69049U 26102A 26238.30990125 .00014464 00000+0 18254-3 0 9990 2 69049 41.4676 256.3321 0001670 252.2409 107.8247 15.59279364304544 SHENZHOU-23 (SZ-23) 1 69180U 26113A 26238.30990125 .00014464 00000+0 18254-3 0 9998 2 69180 41.4676 256.3321 0001670 252.2409 107.8247 15.59279364304269